FW6644 Weather Reports


Display with metric or nautical units.
time (UTC)temp
F
wind
direction
speed
MPH
gust
MPH
rain 1hr
in
rain 24hr
in
rain mn
in
humidity
%
barometer
mb
20260903113030 83 47 0.0 1.0 0.00 0.00 0.00 51 1008.1
20260903111525 83 117 0.0 1.0 0.00 0.00 0.00 50 1008.1
20260903110025 83 146 0.0 1.0 0.00 0.00 0.00 50 1008.0
20260903104527 84 129 0.0 3.0 0.00 0.00 0.00 50 1008.0
20260903103022 84 124 1.0 3.0 0.00 0.00 0.00 52 1007.9
20260903101529 85 120 0.0 2.0 0.00 0.00 0.00 53 1007.9
20260903100024 85 91 0.0 2.0 0.00 0.00 0.00 53 1008.0
20260903094517 86 58 0.0 2.0 0.00 0.00 0.00 48 1008.0
20260903093014 86 243 0.0 2.0 0.00 0.00 0.00 46 1007.9
20260903091514 86 218 0.0 1.0 0.00 0.00 0.00 46 1007.9
20260903090011 86 243 0.0 2.0 0.00 0.00 0.00 49 1007.7
20260903084513 86 163 0.0 2.0 0.00 0.00 0.00 49 1007.7
20260903083009 87 159 0.0 2.0 0.00 0.00 0.00 48 1007.7
20260903081506 87 153 0.0 3.0 0.00 0.00 0.00 48 1007.8
20260903080001 88 193 0.0 2.0 0.00 0.00 0.00 47 1007.8
20260903074600 89 219 0.0 4.0 0.00 0.00 0.00 46 1007.9
20260903073113 89 219 0.0 4.0 0.00 0.00 0.00 45 1007.7
20260903071558 90 249 1.0 5.0 0.00 0.00 0.00 44 1007.8
20260903070051 90 210 1.0 5.0 0.00 0.00 0.00 43 1007.9
20260903064555 91 256 1.0 6.0 0.00 0.00 0.00 39 1007.8
20260903063055 92 232 0.0 2.0 0.00 0.00 0.00 31 1007.6
20260903061550 92 250 0.0 4.0 0.00 0.00 0.00 32 1007.5
20260903060049 92 292 0.0 1.0 0.00 0.00 0.00 39 1007.5
20260903054549 93 221 0.0 2.0 0.00 0.00 0.00 38 1007.5
20260903053049 93 221 0.0 3.0 0.00 0.00 0.00 37 1007.5
20260903051547 93 238 1.0 3.0 0.00 0.00 0.00 37 1007.6
20260903050047 94 240 0.0 3.0 0.00 0.00 0.00 36 1007.5
20260903044547 95 228 0.0 3.0 0.00 0.00 0.00 35 1007.5
20260903043100 95 212 1.0 3.0 0.00 0.00 0.00 34 1007.5
20260903041545 95 235 0.0 2.0 0.00 0.00 0.00 34 1007.5
20260903040046 95 286 1.0 4.0 0.00 0.00 0.00 34 1007.3
20260903034544 95 302 1.0 4.0 0.00 0.00 0.00 33 1007.1
20260903033044 96 262 0.0 5.0 0.00 0.00 0.00 32 1007.0
20260903031548 96 238 0.0 5.0 0.00 0.00 0.00 32 1006.9
20260903030046 96 287 1.0 5.0 0.00 0.00 0.00 32 1006.7
20260903024541 97 291 1.0 5.0 0.00 0.00 0.00 31 1006.6
20260903023041 97 253 2.0 5.0 0.00 0.00 0.00 31 1006.5
20260903021540 97 256 1.0 7.0 0.00 0.00 0.00 31 1006.4
20260903020048 98 198 1.0 5.0 0.00 0.00 0.00 31 1006.3
20260903014539 98 215 2.0 7.0 0.00 0.00 0.00 30 1006.2
20260903013047 99 264 2.0 6.0 0.00 0.00 0.00 29 1006.0
20260903011538 99 243 2.0 7.0 0.00 0.00 0.00 28 1006.1
20260903010039 101 256 5.0 9.0 0.00 0.00 0.00 27 1006.1
20260903004537 101 179 2.0 5.0 0.00 0.00 0.00 27 1006.0
20260903003036 101 238 3.0 7.0 0.00 0.00 0.00 27 1006.1
20260903001535 101 38 1.0 9.0 0.00 0.00 0.00 27 1006.1
20260903000040 102 269 0.0 8.0 0.00 0.00 0.00 26 1006.2
20260902234531 101 210 3.0 9.0 0.00 0.00 0.00 27 1006.4
20260902233032 101 319 3.0 7.0 0.00 0.00 0.00 26 1006.5
20260902231528 101 338 4.0 9.0 0.00 0.00 0.00 26 1006.7
20260902230026 102 249 1.0 10.0 0.00 0.00 0.00 25 1006.8
20260902224524 102 342 3.0 10.0 0.00 0.00 0.00 24 1007.0
20260902223045 102 222 4.0 9.0 0.00 0.00 0.00 24 1007.2
20260902221522 103 240 4.0 9.0 0.00 0.00 0.00 24 1007.4
20260902220020 103 162 1.0 12.0 0.00 0.00 0.00 25 1007.6
20260902214517 104 266 0.0 5.0 0.00 0.00 0.00 25 1007.8
20260902213014 103 327 0.0 6.0 0.00 0.00 0.00 26 1008.0
20260902211518 103 130 3.0 8.0 0.00 0.00 0.00 26 1008.2
20260902210010 101 226 1.0 7.0 0.00 0.00 0.00 26 1008.4
20260902204510 102 218 3.0 10.0 0.00 0.00 0.00 28 1008.8
20260902203005 102 195 3.0 9.0 0.00 0.00 0.00 28 1009.0
20260902201502 101 246 1.0 9.0 0.00 0.00 0.00 28 1009.3
20260902200002 101 226 2.0 11.0 0.00 0.00 0.00 28 1009.6
20260902194501 102 222 5.0 11.0 0.00 0.00 0.00 27 1009.9
20260902193100 101 212 5.0 10.0 0.00 0.00 0.00 28 1010.1
20260902191559 100 154 3.0 9.0 0.00 0.00 0.00 28 1010.2
20260902190100 100 359 3.0 10.0 0.00 0.00 0.00 29 1010.5
20260902184556 100 148 3.0 10.0 0.00 0.00 0.00 29 1010.6
20260902183106 99 162 5.0 12.0 0.00 0.00 0.00 28 1010.8
20260902181600 99 50 5.0 9.0 0.00 0.00 0.00 33 1011.0
20260902180048 98 210 5.0 10.0 0.00 0.00 0.00 32 1011.1
20260902174549 97 155 6.0 14.0 0.00 0.00 0.00 33 1011.1
20260902173056 97 192 6.0 11.0 0.00 0.00 0.00 34 1011.3
20260902171544 97 131 3.0 5.0 0.00 0.00 0.00 34 1011.4
20260902170046 96 147 2.0 6.0 0.00 0.00 0.00 38 1011.3
20260902164539 95 218 3.0 9.0 0.00 0.00 0.00 40 1011.3
20260902163041 95 243 1.0 5.0 0.00 0.00 0.00 42 1011.2
20260902161531 94 338 3.0 7.0 0.00 0.00 0.00 44 1011.3
20260902160028 93 66 2.0 6.0 0.00 0.00 0.00 46 1011.2
20260902154526 91 87 1.0 5.0 0.00 0.00 0.00 50 1011.2
20260902153022 91 148 0.0 8.0 0.00 0.00 0.00 51 1011.1
20260902151521 90 244 4.0 7.0 0.00 0.00 0.00 51 1011.0
20260902150016 90 290 0.0 2.0 0.00 0.00 0.00 52 1011.1
20260902144514 89 141 0.0 4.0 0.00 0.00 0.00 54 1011.1
20260902143016 88 148 0.0 2.0 0.00 0.00 0.00 56 1011.0
20260902141511 86 148 0.0 4.0 0.00 0.00 0.00 58 1010.9
20260902140009 85 183 1.0 4.0 0.00 0.00 0.00 60 1010.7
20260902134507 85 122 0.0 3.0 0.00 0.00 0.00 60 1010.4
20260902133010 83 125 0.0 3.0 0.00 0.00 0.00 62 1010.2
20260902131504 83 194 0.0 3.0 0.00 0.00 0.00 63 1010.0
20260902130005 82 117 1.0 2.0 0.00 0.00 0.00 64 1010.0
20260902124500 83 115 0.0 4.0 0.00 0.00 0.00 63 1009.9
20260902123106 83 141 1.0 4.0 0.00 0.00 0.00 63 1009.7
20260902121557 83 63 0.0 4.0 0.00 0.00 0.00 63 1009.7
20260902120056 83 138 0.0 2.0 0.00 0.00 0.00 62 1009.4
20260902114554 83 75 0.0 2.0 0.00 0.00 0.00 61 1009.5